Simultaneous Nadir Overpasses (SNOs) Predictions

Prediction of SNOs near US between AQUA and NPP Satellite Orbit:

Table of predicted SNOs near US for the next 10.0 days since TLE Epoch: 11/11/2016
Index Date (AQUA) Time (AQUA) AQUA Lat,Lon Date (NPP) Time (NPP) NPP Lat,Lon Distance(km) Time Diff (sec)
1 11/13/2016 08:34:23 21.03,-101.65 11/13/2016 08:26:20 21.08,-101.87 23.24 483
2 11/13/2016 10:10:45 30.13,-124.13 11/13/2016 10:05:13 30.26,-124.86 71.58 332
3 11/16/2016 07:18:20 49.93, -75.98 11/16/2016 07:20:50 50.40, -78.26 170.23 150
4 11/16/2016 08:57:13 49.94,-100.70 11/16/2016 09:02:18 50.51,-103.58 214.68 305
5 11/18/2016 18:16:29 49.94, -80.18 11/18/2016 18:11:07 49.65, -81.79 120.17 322
6 11/18/2016 19:55:22 49.94,-104.90 11/18/2016 19:52:35 49.54,-107.11 165.48 167
7 11/18/2016 21:30:32 36.64,-124.99 11/18/2016 21:30:14 36.16,-127.62 242.25 18
8 11/21/2016 09:22:28 25.77,-112.86 11/21/2016 09:15:43 25.85,-113.37 51.29 405




NCC Satellite Simultaneous Nadir Overpasses (SNOs) Prediction Service
